FENGYUN 1C DEB, 31931

Orbit data source: Space-Track

FENGYUN 1C DEB, 31931 is space debris in SSO originally from a launch on Mon, 10 May 1999 UTC launched from the Taiyaun Space Center, China (TSC). Fengyun 1C debris stems from the Chinese weather satellite Fengyun-1C, which was intentionally destroyed by a Chinese anti-satellite missile in 2007. This event dramatically increased the amount of space debris, with thousands of trackable fragments posing hazards to satellites and human spaceflight. The Fengyun 1C debris cloud has become a focal point in discussions about space sustainability and the need for international regulations to prevent the creation of new debris.

Loading next visibility...
Identifier
31931, 1999-025CMG
Orbit
SSO
Country
Flag of CNCN / PRC
Related business
Manufacturer
Unknown
Mission
Spacecraft
Bus & Motor
Unknown
Mass
Unknown
Launch date (UTC)
1999-05-10 (27 years ago)
Launch vehicle
Unknown
Launch site
Taiyaun Space Center, China (TSC)
Object type
Payload
Rocket body
Debris
Shape & HBR
Unknown shape, 0.1 m
Radar Cross Section
Small (<0.1 m²)

Expand to show TLE details & history
Last TLE update: 22 hours ago

TLE from 22 hours ago
0 FENGYUN 1C DEB
1 31931U 99025CMG 26206.47188370  .00000776  00000-0  82478-3 0  9998
2 31931  97.8202 112.2926 0424649  45.2290 318.2580 13.42940876682389
Epoch: 2026-07-25T11:19Z
TLE epoch observation values (Epoch: 2026-07-25T11:19:30.751Z)
Latitude
-0.00011°
Longitude
-0.76919°
Altitude
870.511 km
Speed
7.531 km/s
True Right ascension
07h 29m 10s
True Declination
0° 00' 00"
Sunlit
Object was in daylight at epoch
Visualization orbit readout
Latitude
Unknown
Longitude
Unknown
Altitude
Unknown
Speed
Unknown
Apparent Right ascension
Unknown
Apparent Declination
Unknown
Sunlit
N/A
Visualization observer readout
Local Sidereal Time
22:21:31
Azimuth
Unknown
Elevation
Unknown
Doppler factor
Unknown
Orbital elements
Apogee altitude
1,412.93 km
Perigee altitude
778.19 km
Semi-major axis
7,473.697 km
Eccentricity
0.04246
Inclination
97.8202°
RAAN
112.2926°
Arg. of periapsis
45.229°
True anomaly
314.88683°
Mean anomaly
318.258°
Eccentric anomaly
316.58584°
Mean motion
3.35923 °/min
Orbital period
107.17 mins
BSTAR
0.00082478
Loading maneuver chart data...
Computing Atmospheric mass density...
Loading historical data...
Loading historical data...
Loading historical data...
Loading historical data...
Loading historical data...
Loading historical data...
Loading historical data...

Documentation

Showing up to 5 results
|